Regional Weather Roundup
Issued by NWS

Home | Current Version | Previous Version | Graphics & Text | Print | Product List | Glossary On
Versions: 1 2 3 4 5 6 7 8 9 10 11 12 13 14 15 16 17 18 19 20 21 22 23 24 25 26 27
000
ASUS45 KBOU 261307
RWRCO

WEATHER ROUNDUP FOR COLORADO
NATIONAL WEATHER SERVICE DENVER/BOULDER CO
700 AM MDT FRI AUG 26 2016

NOTE: "FAIR" INDICATES FEW OR NO CLOUDS BELOW 12000 FEET WITH NO
SIGNIFICANT WEATHER AND/OR OBSTRUCTIONS TO VISIBILITY.

COZ001>005-013-030-031-261400-
...NORTHWEST COLORADO...

CITY           SKY/WX    TMP DP  RH WIND       PRES   REMARKS
CRAIG          FAIR      41  37  86 E3        30.24R
HAYDEN         FAIR      45  36  70 E7        30.25S
MEEKER         FAIR      41  37  86 E5        30.25R
MOUNT WERNER   NOT AVBL
STEAMBOAT SPGS FAIR      42  38  83 CALM      30.27R
WALDEN         FAIR      36  32  87 E6        30.32S
$$

COZ006>008-011-261400-
...WEST CENTRAL VALLEYS...

CITY           SKY/WX    TMP DP  RH WIND       PRES   REMARKS
GRAND JUNCTION FAIR      53  47  79 E12       30.19R
MONTROSE       FAIR      47  46  97 E3        30.27R
EAGLE          MOCLDY    45  45 100 CALM      30.32R
RIFLE          FAIR      47  47 100 CALM      30.25S
DELTA          NOT AVBL
NUCLA          FAIR     N/A N/A N/A E6        30.29R
$$

COZ017>023-064>068-261400-
...SOUTHWEST COLORADO...

CITY           SKY/WX    TMP DP  RH WIND       PRES   REMARKS
DURANGO        CLOUDY    51  47  86 SW3       30.28R
CORTEZ         MOCLDY    50  49  96 S5        30.26R
PAGOSA SPRINGS CLOUDY    49  47  95 CALM      30.33R
TELLURIDE      CLOUDY    43  42  98 SE5       30.41R
WOLF CREEK PAS FOG       34  34 100 SW17G23   30.52R VSB 1/4 WCI  23
$$

COZ009-010-012-014-032>034-037-058>063-261400-
...CENTRAL COLORADO...

CITY           SKY/WX    TMP DP  RH WIND       PRES   REMARKS
ASPEN          MOCLDY    43  41  93 SW6       30.32S
BUENA VISTA    CLOUDY    46  43  89 CALM      30.33R
COPPER MTN     CLOUDY    37  34  87 NW12      30.49R
BERTHOUD PASS  HAZE      30  18  59 NW18G25   30.48R VSB<1/4 WCI  18
COTTONWOOD PAS CLOUDY    45  37  76 CALM      30.39R
GUNNISON       MOCLDY    46  43  87 E3        30.36R
KREMMLING      FAIR      41  37  87 CALM      30.32S
LEADVILLE      CLOUDY    36  34  92 CALM      30.39R FOG
MONARCH PASS   FOG       32  32 100 W15       30.58R VSB<1/4 WCI  22
SALIDA         CLOUDY    48  46  92 NW3       30.37S
SUNLIGHT       CLOUDY    39  39 100 E5        30.47R
WILKERSON PASS FOG       36  34  93 SW7       30.46S VSB 1/4
$$

COZ069>075-261400-
...SAN LUIS VALLEY/SANGRE DE CRISTO MOUNTAINS...

CITY           SKY/WX    TMP DP  RH WIND       PRES   REMARKS
ALAMOSA        MOCLDY    43  42  97 CALM      30.30S
LA VETA PASS   FOG       41  39  93 SW6       30.40R VSB 1/2
SAGUACHE       NOT AVBL
$$

COZ035-036-038>040-261400-
...NORTHERN COLORADO FRONT RANGE...

CITY           SKY/WX    TMP DP  RH WIND       PRES   REMARKS
DENVER INTL AP MOCLDY    55  48  77 N6        30.16R
DMNS CITY PARK   N/A     56  50  80 N3        30.15F
AURORA         MOCLDY    55  48  78 W3        30.18R
FRONT RANGE AP MOCLDY    57  50  77 S6        30.17
ERIE MUNI ARPT FAIR      53  51  92 CALM      30.15S FOG
BOULDER MUN AP NOT AVBL
CENTENNIAL     MOCLDY    56  44  64 NW3       30.18R
BROOMFIELD     NOT AVBL
FORT COLLINS   CLOUDY    54  50  87 N7        30.17R
LONGMONT       MOCLDY    56  52  86 N5        30.17S FOG
$$

COZ041-046-047-076>085-087-088-261400-
...PIKES PEAK/PALMER DIVIDE AND SOUTHERN FOOTHILLS...

CITY           SKY/WX    TMP DP  RH WIND       PRES   REMARKS
COLO. SPRINGS  CLOUDY    52  49  89 SW7       30.22S
A. F. ACADEMY  PTCLDY    48  48 100 SW3       30.21F
SCHRIEVER AFB  NOT AVBL
ELLICOTT       NOT AVBL
FALCON         CLOUDY    51  49  94 S9        30.24S
FORT CARSON    CLOUDY    53  49  88 W3        30.20S
LIMON          CLOUDY    54  54 100 SE7       30.19S FOG
MONUMENT HILL  MOCLDY    46  45  93 W5        30.25R
TRINIDAD       FAIR      56  50  80 W7        30.20F
$$

COZ042>045-048>051-090-091-261400-
...NORTHEAST COLORADO...

CITY           SKY/WX    TMP DP  RH WIND       PRES   REMARKS
GREELEY ARPT   FAIR      54  50  87 CALM      30.16R
AKRON          FAIR      55  52  89 SE12      30.17S
BURLINGTON     CLOUDY    58  52  80 SE9       30.18S
WRAY           CLOUDY    59  52  77 SE7       30.18S
STERLING       MOCLDY    59  54  82 SE10G17   30.12F
HOLYOKE        NOT AVBL
FORT MORGAN    CLOUDY    55  54  94 NE5       30.15S
$$

COZ086-089-092>099-261400-
...SOUTHEAST COLORADO...

CITY           SKY/WX    TMP DP  RH WIND       PRES   REMARKS
PUEBLO         MOCLDY    57  53  86 CALM      30.16F
LA JUNTA       FAIR      59  57  93 E5        30.14S
LAMAR          FAIR      60  58  92 E6        30.13F
SPRINGFIELD      N/A     58  58 100 S3        30.16F
$$




USA.gov is the U.S. government's official web portal to all federal, state and local government web resources and services.